Regional Weather Roundup
Issued by NWS

Home | Current Version | Previous Version | Text Only | Print | Product List | Glossary Off
Versions: 1 2 3 4 5 6 7 8 9 10 11 12 13 14 15 16 17 18 19 20 21 22 23 24 25 26 27 28 29 30 31 32 33 34 35 36 37 38 39 40 41 42 43 44 45 46 47 48 49 50

840
ASUS43 KFSD 251610
RWRSD

WEATHER ROUNDUP FOR SOUTH DAKOTA
NATIONAL WEATHER SERVICE SIOUX FALLS SD
1100 AM CDT THU AUG 25 2016

NOTE: "FAIR" INDICATES FEW OR NO CLOUDS BELOW 12,000 FEET WITH NO
SIGNIFICANT WEATHER AND/OR OBSTRUCTIONS TO VISIBILITY.


SDZ001>005-009-010-012>017-251700-
NORTHWEST AND NORTH CENTRAL SOUTH DAKOTA

CITY           SKY/WX    TMP DP  RH WIND       PRES   REMARKS
BUFFALO          N/A     60  43  53 NW22G28   30.20S
FAITH            N/A     61  46  57 NW20      30.23S
MOBRIDGE       PTSUNNY   65  47  52 NW12      30.16R
$$

SDZ012>016-024>037-041>051-057-063-072>074-251700-
SOUTHWEST AND SOUTH CENTRAL SOUTH DAKOTA

CITY           SKY/WX    TMP DP  RH WIND       PRES   REMARKS
RAPID CTY ARPT CLOUDY    59  43  55 N14       30.31R
PIERRE         PTSUNNY   63  48  58 NW14      30.21S
CUSTER         PTSUNNY   51  42  71 NE3       30.33R
ELLSWORTH AFB  CLOUDY    57  45  62 N13       30.30R
PHILIP         CLOUDY    61  47  59 NW13      30.26R
PINE RIDGE     CLOUDY    53  48  83 CALM      30.33S
WINNER         FAIR      65  49  56 NW9       30.23F
$$

SDZ004>011-016>023-039-040-251700-
NORTHEAST SOUTH DAKOTA

CITY           SKY/WX    TMP DP  RH WIND       PRES   REMARKS
ABERDEEN       CLOUDY    63  49  60 NW14      30.14R
WATERTOWN      PTSUNNY   62  51  67 W16G24    30.13R
BROOKINGS      MOSUNNY   61  51  70 NW8       30.15R
SISSETON         N/A     62  51  67 NW17      30.08R
$$

SDZ017-020-022-023-036>040-048>070-251700-
SOUTHEAST SOUTH DAKOTA

CITY           SKY/WX    TMP DP  RH WIND       PRES   REMARKS
SIOUX FALLS    CLOUDY    65  54  67 NW13      30.16R
HURON          CLOUDY    65  50  58 NW13      30.17R
CHAMBERLAIN    SUNNY     67  51  56 NW12      30.22R
MITCHELL       CLOUDY    64  53  67 NW8       30.20R
YANKTON        CLOUDY    63  50  63 NW12      30.18R
$$

ABBREVIATIONS USED IN REMARKS
   TC - TEMPERATURE IN CELSIUS
  WCI - WIND CHILL INDEX
   HX - HEAT INDEX
  VSB - VISIBILITY





USA.gov is the U.S. government's official web portal to all federal, state and local government web resources and services.